Torna al catalogo

FREGAT DEB

LostUNKNOWN
NORAD 45896·DEBRIS·🇷🇺 Russia

Lanciato Jul 18, 2011 da Baikonur Cosmodrome

Loading…

Prossimi Passaggi (prossime 24 ore)

TLE

ObsoletoSource: Space-Track

Epoca: Aug 31, 2020, 03:42 UTC

1 45896U 11037DR  20244.15451044 -.00005326  00000-0 -55359-1 0  9996
2 45896  51.7176 241.0462 1909040 115.3700 265.6568  9.82193209  5174

Traccia FREGAT DEB in tempo reale con AllMySat

Download on the App Store